Погода в Вязьме

Поиск расширенной информации на нашем сайте:

Полезная информация:

Новости сайта



02.01.2020
Опубликован Долгосрочный прогноз погоды по городам России и ближнего зарубежья на январь 2020 года.
Карты: Прогноз на январь и февраль 2020 года, Сравнение прогнозируемой аномалии приземной температуры воздуха на январь 2020 года по разным моделям.




Погода в Вязьме - сегодня

Время (UTC), дата Ветер
(°,м/с) 
Видим.   Явления Облачность Т
(°С)
Тd
(°С)
f(%) Тe
(°С)
Pmin
(гПа)
dP
(гПа)
Po
(мм)
O2
(г/м3)
Тmin Tmax R s Состояние
почвы
21 15.01.22 300 (СЗ) 4{10}  10 км  позёмок  10/10 300 м 
[Sc]
-1.8 -4.2 84 -5  1007  1.2  732  297           
00 16.01.22 310 (СЗ) 10 км  позёмок  9/9 300 м 
[Sc]
-1.5 -4.1 82 -4  1008.3  1.3  733  297           
03 16.01.22 300 (СЗ) 5{10}  10 км  позёмок  10/10 300 м 
[Sc]
-1.9 -5 79 -5  1009.2  0.8  734  298  -2.1         
06 16.01.22 290 (З) 3{10}  10 км  позёмок  6/6 300 м 
[Sc]
-3.7 -7.7 74 -6  1011.7  2.3  735  301  -3.7      29  неравномерный
сухой снег
100% 
09 16.01.22 290 (З) 10 км    4/4 600 м 
[Sc]
-3.2 -8.4 67 -7  1012.7  736  301           
12 16.01.22 250 (З) 10 км    1/1 600 м 
[Sc]
-3.2 -8.1 69 -6  1012.1  -0.6  736  301           
15 16.01.22 240 (ЮЗ) 10 км    8/8 300 м 
[Sc]
-4.9 -7.5 82 -7  1011.2  -1.1  735  302           
18 16.01.22 230 (ЮЗ) 10 км    6/6 300 м 
[Sc]
-5 -6.9 86 -9  1008.3  -2.8  733  301    -2.9       
21 16.01.22 210 (ЮЗ) 4000 м  дымка  8/8 300 м 
[Sc]
-6.2 -7.1 93 -9  1004.8  -3.5  730  302           
00 17.01.22 210 (ЮЗ) 4000 м  дымка  10/10 300 м 
[Sc]
-5.4 -6.3 93 -8  1000.4  -4.1  727  300           
03 17.01.22 200 (Ю) 4000 м  слаб. снег  10/10 300 м 
[Sc|Ns]
-4.4 -5.2 94 -7  995  -5.2  723  297  -6.6    0.0     
06 17.01.22 210 (ЮЗ) 4000 м  позёмок{снег}  10/10 300 м 
[Sc]
-3.6 -4.6 93 -7  990.8  -4  720  295  -6.6    30  неравномерный
сухой снег
100% 
09 17.01.22 200 (Ю) 3{10}  1000 м  снег  10/6 600 м средняя 
[Sc|As op]
-2.8 -3.2 97 -5  987.7  -2.9  718  293           
12 17.01.22 200 (Ю) 4000 м  слаб. снег  10/8 300 м средняя 
[Frnb|As op]
-1.8 -2.1 98 -4  984.8  -2.7  716  291           
15 17.01.22 190 (Ю) 4000 м  слаб. снег  10/8 300 м средняя 
[Frnb|As op]
-1.6 -2.1 96 -3  983.7  -1.1  715  290         
18 17.01.22 190 (Ю) 4000 м  слаб. снег  10/0 средняя 
[As op]
-1.7 -2.2 96 -1  984.3  0.6  716  290    -1.3     
21 17.01.22 310 (СЗ) 4000 м  слаб. снег  10/0 средняя 
[As op]
-1.3 -1.8 96 -1  985.5  1.2  717  290           
00 18.01.22 350 (С) 11-22{22}  0500 м  снег  10/0 средняя 
[As op]
-4.2 -4.9 95 -10  991.2  5.2  721  295           
03 18.01.22 350 (С) 7-12{22}  1000 м  снег  10/0 средняя 
[As op]
-5.4 -7.5 85 -10  997.1  5.5  725  299  -5.4       
06 18.01.22 350 (С) 6-11{15}  10 км  позёмок{снег}  8/3 600 м средняя 
[Sc|Ac trans]
-6.3 -9.3 79 -11  1002.3  728  301  -6.3    33  неравномерный
сухой снег
100% 
09 18.01.22 340 (С) 6-11{12}  4000 м  позёмок{снег}  10/0 средняя 
[As op]
-6.3 -8.7 83 -11  1006.4  3.9  731  302           
12 18.01.22 350 (С) 7-12{13}  4000 м  позёмок{снег}  10/0 средняя 
[As op]
-5.5 -9 76 -10  1010.4  734  303           
15 18.01.22 330 (СЗ) 5{13}  10 км  позёмок{снег}  10/0 средняя 
[Ac und]
-5.8 -8.7 80 -10  1014.4  3.8  737  304      0.7     
18 18.01.22 340 (С) 5-10{11}  10 км  позёмок{снег}  9/9 600 м 
[Sc]
-7 -9.8 80 -11  1018  3.4  740  307    -5.5  0.2     
21 18.01.22 300 (СЗ) 2{10}  10 км    8/0 верхняя 
[Ci fib]
-9.7 -11.5 87 -11  1019.9  1.5  741  311           
Время (UTC), дата Ветер
(°,м/с) 
Видим.   Явления Облачность Т
(°С)
Тd
(°С)
f(%) Тe
(°С)
Pmin
(гПа)
dP
(гПа)
Po
(мм)
O2
(г/м3)
Тmin Tmax R s Состояние
почвы

Для получения пояснительной информации подведите курсор к названию столбца.

ПОГОДА в Вязьме - архив

Всё, что Вы хотите узнать о погоде в Вязьме - удобно и подробно!

Выберите нужную дату (начиная с 1 января 2019* года) и нажмите кнопку "Найти".
Будут отображены архивные сводки погоды по пункту Вязьма, начиная с указанной даты.


Отображать данные в формате CSV (для использования в таблицах Excel)


Внимание! Наш архив погоды предназначен исключительно для личного некоммерческого использования в познавательных целях. Если Вам необходимы официальные справки о состоянии погоды (для производственных, юридических, коммерческих и т.п. целей), обращайтесь в органы Росгидромета.

*Примечание: данная дата относится к архиву по метеостанциям СССР (Россия, СНГ, Балтия).
Архив по метеостанциям Зарубежной Европы и Азии (кроме Китая) хранится 10 дней, по другим регионам земного шара (Китай, Африка, Америка, Австралия, Океания) - 1 день.

Вязьма - район местоположения метеостанции


Название, широта, долгота, высота метеостанции:
Вязьма 55.2°ш. 34.4°д. 251 м над ур. моря [Российская Федерация]

Дополнительная информация

В oтличие oт бoльшинства пoгoдных сайтoв мы публикуем пoдрoбную метеoинфoрмацию в детальнoм прoфессиoнальнoм фoрмате.

Характеристики температуры и влажнoсти вoздуха измеряются на высoте 2 м в тени вдали oт зданий и деревьев.
Скoрoсть ветра измеряется на высoте 10 м (на урoвне рoста челoвека скoрoсть ветра ниже в 1.5-2 раза). Если метеoстанция нахoдится в гoрoде или в лесу, тo скoрoсть ветра занижена на 2-4 м/с пo сравнению с oткрытым местoм. Скoрoсть ветра над акватoриями крупных рек и oзёр, а также на вершинах хoлмoв на 2-5 м/с выше, чем в oбычных услoвиях.
Атмoсфернoе давление в разных тoчках местнoсти мoжет значительнo oтличаться oт давления на метеoстанции, в зависимoсти oт услoвий рельефа (при пoдъёме на 10 м давление пoнижается примернo на 1 мм рт.ст.).